sat.trackr.live / text

‹ back to catalog

ONEWEB-0343

NORAD 49209 · 2021-083Z

PAYLOAD ACTIVE UNKNOWN

§ Identity

Operator
Country
UK
Launch date
2021-09-14
Launch site
TYMSC
Launch vehicle
Mass (kg)
RCS (m²)

Purposes: comms

External: N2YO · Heavens-Above · Gunter

§ Orbital elements

Epoch: 2026-05-25T01:58:25.796064Z

Period
109.20 min
Inclination
87.9168°
Eccentricity
0.0001411
Mean motion
13.18684700 rev/d
Perigee alt
1,188.7 km
Apogee alt
1,190.8 km
Semi-major
7,567.9 km
B*
-2.3583e-5
RAAN
340.0558°
Arg perigee
84.9179°
Mean anomaly
275.2114°
Rev number
22,699

§ Raw data

ONEWEB-03431 49209U 21083Z   26145.08224301  .00000004  00000+0 -23583-4 0  99952 49209  87.9168 340.0558 0001411  84.9179 275.2114 13.18684700226993

JSON: /api/v1/satellites/49209 · /tle

For live sub-satellite position, see the globe view (requires WebGL).

§ Visibility from observer

Set your observer location to see the next 7 days of passes ≥ 10°. The values pass through the URL so the page stays shareable.

No JS? Fill the form by hand. The geolocation button needs JavaScript.